STARLINK-32451, 61857

Orbit data source: Space-Track

STARLINK-32451, 61857 is a payload satellite owned by SpaceX/Seattle (US) in LEO that was launched on Thu, 07 Nov 2024 UTC via an FALCON 9 launch vehicle from the Air Force Eastern Test Range (AFETR). Payload-class satellites include a variety of spacecraft equipped with specific instruments for various scientific and technological missions. These include communications satellites like Starlink; space stations such as the ISS; scientific satellites like the Hubble; Earth observation satellites from companies like Planet Labs, Umbra, and HawkEye 360; GPS; miniature CubeSats for education and research; and military/defense satellites.

Loading next visibility...
Identifier
61857, 2024-202N
Orbit
LEO
Country
Flag of USUS
Related business
Manufacturer
SpaceX/Seattle
Mission
Operational Commercial Communications
Bus & Motor
STARLINK V2M, Unknown motor
Mass
730 kg wet, ~700 kg dry
Launch date (UTC)
2024-11-07 (2 years ago)
Launch vehicle
FALCON 9
Launch site
Air Force Eastern Test Range (AFETR)
Object type
Payload
Rocket body
Debris
Shape & HBR
Box + 2 Pan, 17.7 m
Radar Cross Section
33.884 m², Large (>1 m²)

Expand to show TLE details & history
Last TLE update: 23 hours ago

TLE from 23 hours ago
0 STARLINK-32451
1 61857U 24202N   26266.19441656  .00000054  00000-0  11487-4 0  9999
2 61857  43.0009 202.5660 0000948 271.1897  88.8846 15.27576128105543
Epoch: 2026-09-23T04:39Z
TLE epoch observation values (Epoch: 2026-09-23T04:39:57.590Z)
Latitude
-0.00003°
Longitude
130.52697°
Altitude
482.824 km
Speed
7.626 km/s
True Right ascension
13h 30m 15s
True Declination
0° 00' 00"
Sunlit
Object was in daylight at epoch
Visualization orbit readout
Latitude
Unknown
Longitude
Unknown
Altitude
Unknown
Speed
Unknown
Apparent Right ascension
Unknown
Apparent Declination
Unknown
Sunlit
N/A
Visualization observer readout
Local Sidereal Time
20:48:39
Azimuth
Unknown
Elevation
Unknown
Doppler factor
Unknown
Orbital elements
Apogee altitude
485.656 km
Perigee altitude
484.355 km
Semi-major axis
6,863.143 km
Eccentricity
0.00009
Inclination
43.0009°
RAAN
202.566°
Arg. of periapsis
271.1897°
True anomaly
88.89546°
Mean anomaly
88.8846°
Eccentric anomaly
88.89003°
Mean motion
3.81732 °/min
Orbital period
94.31 mins
BSTAR
0.000011487
Loading maneuver chart data...
Computing Atmospheric mass density...
Loading historical data...
Loading historical data...
Loading historical data...
Loading historical data...
Loading historical data...
Loading historical data...
Loading historical data...

Documentation

Showing up to 5 results
|